Regional Weather Roundup
Issued by NWS

Home | Current Version | Previous Version | Graphics & Text | Print | Product List | Glossary On
Versions: 1 2 3 4 5 6 7 8 9 10 11 12 13 14 15 16 17 18 19 20 21 22 23 24 25 26 27 28 29 30 31 32 33 34 35 36 37 38 39 40 41 42 43 44 45 46 47 48 49 50
000
ASUS43 KBIS 011302
RWRND

NORTH DAKOTA REGIONAL WEATHER ROUNDUP
NATIONAL WEATHER SERVICE BISMARCK ND
800 AM CDT TUE SEP 01 2015

NOTE: "FAIR" INDICATES FEW OR NO CLOUDS BELOW 12,000 FEET WITH NO
SIGNIFICANT WEATHER AND/OR OBSTRUCTIONS TO VISIBILITY.


NDZ001>003-009>011-017-011400-
NORTHWEST NORTH DAKOTA

CITY           SKY/WX    TMP DP  RH WIND       PRES   REMARKS
WILLISTON      CLEAR     50  44  80 CALM      29.83S
MINOT          CLEAR     59  47  64 SW10      29.83S
$$

NDZ018>021-031>035-040>046-011400-
SOUTHWEST NORTH DAKOTA

CITY           SKY/WX    TMP DP  RH WIND       PRES   REMARKS
BISMARCK       CLEAR     54  51  90 NE5       29.89R
DICKINSON      CLEAR     57  53  86 S8        29.86R
GARRISON         N/A     55  50  83 CALM      29.87R
HETTINGER ARPT CLEAR     52  50  93 SE3       29.89S
$$

NDZ004>008-012>016-024-026-027-054-011400-
NORTHEAST NORTH DAKOTA

CITY           SKY/WX    TMP DP  RH WIND       PRES   REMARKS
GRAND FORKS    MOSUNNY   56  52  86 CALM      29.86R
GRND FRKS AFB  SUNNY     58  51  79 SW5       29.87R
DEVILS LAKE    SUNNY     63  50  63 SE7       29.85S
$$

NDZ022-023-025-028>030-036>039-047>053-011400-
SOUTHEAST NORTH DAKOTA

CITY           SKY/WX    TMP DP  RH WIND       PRES   REMARKS
FARGO          PTSUNNY   58  56  93 SE3       29.89S
JAMESTOWN      SUNNY     57  54  89 S3        29.88S
$$



USA.gov is the U.S. government's official web portal to all federal, state and local government web resources and services.